This is the latest recevied weather packets stored in our database for station/object KB9HUO. If no packets are shown the sender has not sent any weather packets the latest 10 day(s).
| Time | Temp. | Humidity | Pressure | Rain* | Wind** | Luminosity | Snow |
|---|---|---|---|---|---|---|---|
| 1778092199 | 14.44° C | 59% | 1015.3 hPa | 0 mm | - | 228 W/m² | - |
| 1778091896 | 14.44° C | 62% | 1015.2 hPa | 0 mm | - | 180 W/m² | - |
| 1778091593 | 14.44° C | 59% | 1015 hPa | 0 mm | - | 206 W/m² | - |
| 1778091291 | 14.44° C | 58% | 1015 hPa | 0 mm | - | 259 W/m² | - |
| 1778090988 | 14.44° C | 61% | 1015 hPa | 0 mm | - | 208 W/m² | - |
| 1778090684 | 14.44° C | 64% | 1015 hPa | 0 mm | - | 176 W/m² | - |
| 1778090381 | 13.89° C | 63% | 1014.8 hPa | 0 mm | - | 205 W/m² | - |
| 1778090078 | 13.89° C | 61% | 1014.9 hPa | 0 mm | - | 146 W/m² | - |
| 1778089774 | 13.89° C | 58% | 1014.9 hPa | 0 mm | - | 154 W/m² | - |
| 1778089473 | 14.44° C | 59% | 1015 hPa | 0 mm | - | 201 W/m² | - |
| 1778089169 | 14.44° C | 59% | 1015 hPa | 0 mm | - | 247 W/m² | - |
| 1778088866 | 14.44° C | 57% | 1015.2 hPa | 0 mm | - | 278 W/m² | - |
| 1778088563 | 14.44° C | 64% | 1015.3 hPa | 0 mm | - | 312 W/m² | - |
| 1778088260 | 14.44° C | 60% | 1015.3 hPa | 0 mm | - | 349 W/m² | - |
| 1778087957 | 13.89° C | 61% | 1015.4 hPa | 0 mm | - | 310 W/m² | - |
| 1778087654 | 13.89° C | 59% | 1015.3 hPa | 0 mm | - | 269 W/m² | - |
| 1778087352 | 13.89° C | 60% | 1015.5 hPa | 0 mm | - | 225 W/m² | - |
| 1778087048 | 13.89° C | 60% | 1015.5 hPa | 0 mm | - | 238 W/m² | - |
| 1778086747 | 13.89° C | 60% | 1015.5 hPa | 0 mm | - | 345 W/m² | - |
| 1778086445 | 13.33° C | 62% | 1015.5 hPa | 0 mm | - | 270 W/m² | - |
| 1778086141 | 13.33° C | 62% | 1015.4 hPa | 0 mm | - | 193 W/m² | - |
| 1778085837 | 13.33° C | 63% | 1015.6 hPa | 0 mm | - | 308 W/m² | - |
| 1778085535 | 13.33° C | 61% | 1015.8 hPa | 0 mm | - | 130 W/m² | - |
| 1778085229 | 13.33° C | 63% | 1015.7 hPa | 0 mm | - | 139 W/m² | - |
| 1778084925 | 13.33° C | 64% | 1015.6 hPa | 0 mm | - | 231 W/m² | - |
* Rain latest hour (hover to see other rain measurements)
** Current wind speed in m/s (hover to see current wind gust speed)